sat.trackr.live / text

‹ back to catalog

2026-106C

NORAD 69099 · 2026-106C

PAYLOAD ACTIVE UNKNOWN

§ Identity

Operator
Country
PRC
Launch date
2026-05-15
Launch site
JSC
Launch vehicle
Mass (kg)
RCS (m²)

External: N2YO · Heavens-Above · Gunter

§ Orbital elements

Epoch: 2026-09-20T04:41:41.064288Z

Period
95.23 min
Inclination
97.5568°
Eccentricity
0.0013172
Mean motion
15.12111734 rev/d
Perigee alt
520.7 km
Apogee alt
538.9 km
Semi-major
6,907.9 km
B*
2.2063e-4
RAAN
343.6520°
Arg perigee
192.9845°
Mean anomaly
167.1048°
Rev number
1,933

§ Raw data

2026-106C1 69099U 26106C   26263.19561417  .00003741  00000+0  22063-3 0  99912 69099  97.5568 343.6520 0013172 192.9845 167.1048 15.12111734 19339

JSON: /api/v1/satellites/69099 · /tle

For live sub-satellite position, see the globe view (requires WebGL).

§ Visibility from observer

Set your observer location to see the next 7 days of passes ≥ 10°. The values pass through the URL so the page stays shareable.

No JS? Fill the form by hand. The geolocation button needs JavaScript.